QIANFAN-6

Satellite information

Favourite Embed

Satellite Type and Status

PAYLOADIN ORBIT

Key statistics

Satellite QIANFAN-6 at a glance.

Uptime

436

Days in orbit

Revolutions

≈ 13.5

Per day

Orbit

LEO

Low Earth Orbit

Inclination

89.0

Latest

Satellite identification and parameters

Extended collection of information and parameters for QIANFAN-6.

Object identification

Identified? True

Debris? False

Object name: QIANFAN-6

International designator: 2024-140F

Object number (NORAD): 60384

Object ID (CCSDS): 60384

Country: PEOPLES REPUBLIC OF CHINA (PRC)

Current information (Y/N): Y

RCS size: LARGE

Orbital parameters

Period: 106.59 minutes

Inclination: 88.9746 deg

SMA: 7446.818 km

Apoapsis: 1078.627 km

Periapsis: 1058.739 km

RAAN: 305.0098 deg

Eccentricy: 0.00133529

Argument of periapsis: 11.9041 deg

Mean anomaly: 348.2423 deg

Mean motion: 13.50972992 rev/day

Mean motion (dot): 0.00000064 rev/day2

B* drag term: 0.000080783785 1/REarth

Two-line elements (TLE)

Creation date: Oct. 16, 2025, 2:37 a.m.

Reference frame: TEME

Reference center: EARTH

Epoch: Oct. 16, 2025, 12:06 a.m. UTC

TLE line 0: 0 QIANFAN-6

TLE line 1: 1 60384U 24140F 25289.00470659 .00000064 00000-0 80784-4 0 9990

TLE line 2: 2 60384 88.9746 305.0098 0013353 11.9041 348.2423 13.50972992 59705

Live tracking on map

Real-time ground track for satellite QIANFAN-6.

In-orbit conjunctions

There are no conjunctions computed for QIANFAN-6, at the moment. Check back to stay up to date, as we update our databases every day.

Go to all conjunctions

Associated space launch

18 Low Earth Orbit communication satellites with Ku, Q and V band payloads for the G60 constellation operated by Shanghai Spacecom Satellite Technology (SSST) with funding backed by the Shanghai local government. Initial constellation will consist of 1296 satellites by 2027 with long term plans to expand it to 12000 satellites.

QIANFAN-6 was lifted into orbit during the mission ‘Long March 6A | G60 Polar Group 01’, on board a Long March 6A space rocket.

The launch took place on Aug. 6, 2024, 6:42 a.m. from Launch Complex 9A.

For more information about the launch, click the button.

Launch to space Long March 6A | G60 Polar Group 01
Long March 6A | G60 Polar Group 01

Agency: N/A

Status: Launch Successful

Launch date: Aug. 6, 2024, 6:42 a.m. UTC

Rocket: Long March 6A

Launch pad: Launch Complex 9A

Location: Taiyuan Satellite Launch Center, People's Republic of China

...

Latest news about this satellite

News about space launch
Brightness of first Chinese broadband constellation satellites alarms astronomers

The first satellites of a Chinese broadband constellation are significantly brighter than those of Western systems, posing a new challenge for astronomers.

News about space launch
Chinese rocket stage breaks up into cloud of more than 700 pieces of space debris

HELSINKI — A Chinese Long March 6A rocket’s upper stage has fragmented into a cloud of over 700 pieces of space debris, adding to concerns about long-term orbital safety. China […]

News about space launch
China's Thousand Sails Megaconstellation Kicks Off with Dangerous Debris Field

China's Thousand Sails Megaconstellation Kicks Off with Dangerous Debris Field


Newsletter sign-up

Weekly statistics, charts and insights to help you stay on top of the space industry.